Regional Weather Roundup
Issued by NWS Jackson, KY

Home | Current Version | Previous Version | Graphics & Text | Print | Product List | Glossary On
Versions: 1 2 3 4 5 6 7 8 9 10 11 12 13 14 15 16 17 18 19 20 21 22 23 24 25 26 27 28 29 30 31 32 33 34 35 36 37 38 39 40 41 42 43 44 45 46 47 48 49 50
000
ASUS43 KJKL 021810
RWRJKL

EAST KENTUCKY HOURLY WEATHER ROUNDUP
NATIONAL WEATHER SERVICE JACKSON KY
100 PM EST FRI DEC 02 2016

NOTE: "FAIR" INDICATES FEW OR NO CLOUDS BELOW 12,000 FEET WITH
NO SIGNIFICANT WEATHER AND/OR OBSTRUCTIONS TO VISIBILITY.

* THESE REPORTS ARE NOT UNDER NWS QUALITY CONTROL AND MAY NOT
  REPORT WEATHER SUCH AS PRECIPITATION AND FOG.

KYZ079-080-083-085-087-088-110-112-115-119-120-021900
...EASTERN KENTUCKY...

CITY           SKY/WX    TMP DP  RH WIND       PRES   REMARKS
JACKSON        PTSUNNY   40  29  64 NW7       30.20F
6HR MIN TEMP:  29; 6HR MAX TEMP:  45;

LONDON         SUNNY     47  28  47 W9        30.21F
6HR MIN TEMP:  26; 6HR MAX TEMP:  47;

SOMERSET*      SUNNY     46  28  49 NW10      30.23F
MONTICELLO*    SUNNY     50  31  48 W9G18     30.23F
6HR MIN TEMP:  22; 6HR MAX TEMP:  51;

WILLIAMSBURG*  CLEAR     48  28  46 W5        30.21F
MIDDLESBORO*   SUNNY     51  27  39 W6        30.21F
6HR MIN TEMP:  28; 6HR MAX TEMP:  51;

HARLAN APT*    CLEAR     48  30  49 S5        30.20F
PIKE CO APT*   CLOUDY    45  31  58 W7        30.19S
BIG SANDY APT* CLOUDY    42  31  64 W6G16     30.20S
6HR MIN TEMP:  33; 6HR MAX TEMP:  42;

MOREHEAD APT*  CLOUDY    39  28  65 NW8G15    30.24S WCI  34
ASHLAND*       CLOUDY    39  32  75 NW8       30.20S WCI  34
$$

KYZ035-036-041-042-044-050-067-078-099-021900
...CENTRAL KENTUCKY...

CITY           SKY/WX    TMP DP  RH WIND       PRES   REMARKS
MT STERLING*   CLOUDY    39  30  70 NW7       30.24S WCI  34
FLEMING/MASON* CLOUDY    36  30  78 W8        30.23S WCI  30
DANVILLE*      SUNNY     43  32  65 NW8       30.23F
LEXINGTON      CLOUDY    42  28  57 NW6       30.23S
6HR MIN TEMP:  28; 6HR MAX TEMP:  42;

FRANKFORT      CLOUDY    42  28  57 VRB6      30.22F
6HR MIN TEMP:  28; 6HR MAX TEMP:  42;

LOUISVILLE     PTSUNNY   45  28  51 W10       30.24F
6HR MIN TEMP:  32; 6HR MAX TEMP:  47;

LEBANON*         N/A     45  28  53 W5        30.23F
GLASGOW*       SUNNY     49  31  49 W7        30.24F
BOWLING GREEN  SUNNY     51  28  41 W8        30.25F
6HR MIN TEMP:  28; 6HR MAX TEMP:  51;

$$

KYZ091>093-OHZ055-061-077-WVZ005-015-034-035-042-021900
...SOUTHERN OHIO/WEST VIRGINIA...

CITY           SKY/WX    TMP DP  RH WIND       PRES   REMARKS
COVINGTON      CLOUDY    39  30  70 W8        30.20F WCI  33
COLUMBUS       CLOUDY    38  32  79 W10       30.14S WCI  31
DAYTON         DRIZZLE   37  32  82 W10       30.17S WCI  30
WILMINGTON     CLOUDY    37  30  75 W15       30.17S WCI  28
HUNTINGTON     CLOUDY    39  28  64 W13G20    30.20F WCI  31
CHARLESTON     CLOUDY    39  29  67 VRB5      30.18S
PINEVILLE*     CLOUDY    45  27  50 MISG      30.19F
BECKLEY        CLOUDY    37  27  67 NW8       30.10F WCI  31
BLUEFIELD      PTSUNNY   37  26  64 NW9       30.10F WCI  30
LOGAN CO APT*  CLOUDY    39  30  70 CALM      30.16S
$$

VAZ002-007-008-TNZ017-027-036-066-071-021900
...SOUTHWEST VIRGINIA/EAST TENNESSEE...

CITY           SKY/WX    TMP DP  RH WIND       PRES   REMARKS
WISE*          SUNNY     45  27  49 W8        30.17R
JONESVILLE*      N/A     50  30  46 SW10      30.22F
ABINGDON*      SUNNY     46  31  55 W10       30.17S
BRISTOL        MOSUNNY   48  29  47 W10       30.20F
MORRISTOWN*    CLEAR     48  28  46 NW7G13    30.21F
SEVIERVILLE*   CLEAR     54  25  32 W7        30.23S
KNOXVILLE      MOSUNNY   51  28  41 S7        30.23F
OAK RIDGE      SUNNY     53  29  39 S6        30.24F
CROSSVILLE     SUNNY     49  24  37 W15       30.22F
NASHVILLE      MOSUNNY   55  26  32 VRB6      30.25F
$$

...KEY TO REMARKS...
VSB - VISIBILITY IN MILES
WCI - WIND CHILL INDEX
HX  - HEAT INDEX

$$



USA.gov is the U.S. government's official web portal to all federal, state and local government web resources and services.